Time,TemperatureF,DewpointF,PressureIn,WindDirection,WindDirectionDegrees,WindSpeedMPH,WindSpeedGustMPH,Humidity,HourlyPrecipIn,Conditions,Clouds,dailyrainin,SoftwareType,DateUTC
2013-06-09 00:04:00,68.1,57.0,29.82,East,87,4.0,-999.0,68,-99.99,,,0.00,weatherlink.com 1.10,2013-06-09 05:04:00,
2013-06-09 00:19:00,68.0,57.0,29.82,East,84,4.0,-999.0,69,-99.99,,,0.00,weatherlink.com 1.10,2013-06-09 05:19:00,
2013-06-09 00:39:00,68.0,57.0,29.82,East,99,7.0,-999.0,68,-99.99,,,0.00,weatherlink.com 1.10,2013-06-09 05:39:00,
2013-06-09 00:49:00,68.1,57.0,29.82,ESE,110,8.0,-999.0,68,-99.99,,,0.00,weatherlink.com 1.10,2013-06-09 05:49:00,
2013-06-09 01:05:00,68.1,58.0,29.83,ESE,123,9.0,-999.0,69,-99.99,,,0.00,weatherlink.com 1.10,2013-06-09 06:05:00,
2013-06-09 01:20:00,67.8,57.0,29.83,SE,134,8.0,-999.0,69,-99.99,,,0.00,weatherlink.com 1.10,2013-06-09 06:20:00,
2013-06-09 01:39:00,66.4,59.0,29.83,SE,126,8.0,-999.0,77,-99.99,,,0.00,weatherlink.com 1.10,2013-06-09 06:39:00,
2013-06-09 01:50:00,65.2,60.0,29.82,SE,138,0.0,-999.0,82,-99.99,,,0.01,weatherlink.com 1.10,2013-06-09 06:50:00,
2013-06-09 02:05:00,64.8,60.0,29.82,SSE,149,10.0,-999.0,84,-99.99,,,0.01,weatherlink.com 1.10,2013-06-09 07:05:00,
2013-06-09 02:20:00,64.0,60.0,29.81,SE,124,2.0,-999.0,87,-99.99,,,0.01,weatherlink.com 1.10,2013-06-09 07:20:00,
2013-06-09 02:39:00,63.7,61.0,29.81,SSE,150,5.0,-999.0,89,-99.99,,,0.01,weatherlink.com 1.10,2013-06-09 07:39:00,
2013-06-09 02:50:00,63.6,61.0,29.81,SE,142,1.0,-999.0,90,-99.99,,,0.01,weatherlink.com 1.10,2013-06-09 07:50:00,
2013-06-09 03:05:00,63.4,61.0,29.81,SSE,167,2.0,-999.0,91,-99.99,,,0.01,weatherlink.com 1.10,2013-06-09 08:05:00,
2013-06-09 03:20:00,63.3,61.0,29.81,SSE,161,6.0,-999.0,92,-99.99,,,0.01,weatherlink.com 1.10,2013-06-09 08:20:00,
2013-06-09 03:39:00,63.0,61.0,29.80,SE,127,0.0,-999.0,93,-99.99,,,0.01,weatherlink.com 1.10,2013-06-09 08:39:00,
2013-06-09 03:50:00,63.0,61.0,29.80,South,173,0.0,-999.0,93,-99.99,,,0.01,weatherlink.com 1.10,2013-06-09 08:50:00,
2013-06-09 04:06:00,63.1,61.0,29.80,SE,146,2.0,-999.0,93,-99.99,,,0.01,weatherlink.com 1.10,2013-06-09 09:06:00,
2013-06-09 04:21:00,63.2,61.0,29.80,SSE,151,0.0,-999.0,93,-99.99,,,0.01,weatherlink.com 1.10,2013-06-09 09:21:00,
2013-06-09 04:39:00,63.1,61.0,29.80,SE,131,7.0,-999.0,93,-99.99,,,0.01,weatherlink.com 1.10,2013-06-09 09:39:00,
2013-06-09 04:50:00,63.0,61.0,29.80,SE,136,5.0,-999.0,93,-99.99,,,0.01,weatherlink.com 1.10,2013-06-09 09:50:00,
2013-06-09 05:06:00,63.1,61.0,29.80,ESE,118,8.0,-999.0,93,-99.99,,,0.01,weatherlink.com 1.10,2013-06-09 10:06:00,
2013-06-09 05:21:00,63.0,61.0,29.80,South,175,1.0,-999.0,93,-99.99,,,0.01,weatherlink.com 1.10,2013-06-09 10:21:00,
2013-06-09 05:39:00,62.9,61.0,29.80,SE,131,7.0,-999.0,94,-99.99,,,0.01,weatherlink.com 1.10,2013-06-09 10:39:00,
2013-06-09 05:51:00,62.8,61.0,29.80,SSE,157,0.0,-999.0,94,-99.99,,,0.02,weatherlink.com 1.10,2013-06-09 10:51:00,
2013-06-09 06:06:00,62.7,61.0,29.80,SE,126,5.0,-999.0,94,-99.99,,,0.02,weatherlink.com 1.10,2013-06-09 11:06:00,
2013-06-09 06:21:00,62.7,61.0,29.80,ESE,123,5.0,-999.0,94,-99.99,,,0.02,weatherlink.com 1.10,2013-06-09 11:21:00,
2013-06-09 06:39:00,62.7,61.0,29.80,SSE,155,4.0,-999.0,94,-99.99,,,0.02,weatherlink.com 1.10,2013-06-09 11:39:00,
2013-06-09 06:51:00,62.6,61.0,29.80,SSE,154,0.0,-999.0,94,-99.99,,,0.02,weatherlink.com 1.10,2013-06-09 11:51:00,
2013-06-09 07:06:00,62.7,61.0,29.79,SSE,158,0.0,-999.0,94,-99.99,,,0.02,weatherlink.com 1.10,2013-06-09 12:06:00,
2013-06-09 07:21:00,62.8,61.0,29.79,ESE,123,5.0,-999.0,94,-99.99,,,0.02,weatherlink.com 1.10,2013-06-09 12:21:00,
2013-06-09 07:39:00,62.7,61.0,29.80,SE,126,7.0,-999.0,94,-99.99,,,0.02,weatherlink.com 1.10,2013-06-09 12:39:00,
2013-06-09 07:51:00,62.7,61.0,29.80,SSE,153,5.0,-999.0,94,-99.99,,,0.02,weatherlink.com 1.10,2013-06-09 12:51:00,
2013-06-09 08:07:00,62.8,61.0,29.80,SSE,157,4.0,-999.0,94,-99.99,,,0.02,weatherlink.com 1.10,2013-06-09 13:07:00,
2013-06-09 08:22:00,63.0,61.0,29.80,SE,132,5.0,-999.0,93,-99.99,,,0.02,weatherlink.com 1.10,2013-06-09 13:22:00,
2013-06-09 08:39:00,63.4,61.0,29.79,South,178,7.0,-999.0,92,-99.99,,,0.02,weatherlink.com 1.10,2013-06-09 13:39:00,
2013-06-09 08:51:00,64.3,61.0,29.79,SSE,149,1.0,-999.0,90,-99.99,,,0.02,weatherlink.com 1.10,2013-06-09 13:51:00,
2013-06-09 09:07:00,64.7,62.0,29.79,South,170,6.0,-999.0,90,-99.99,,,0.02,weatherlink.com 1.10,2013-06-09 14:07:00,
2013-06-09 09:22:00,65.9,62.0,29.79,SE,128,2.0,-999.0,88,-99.99,,,0.02,weatherlink.com 1.10,2013-06-09 14:22:00,
2013-06-09 09:39:00,67.3,63.0,29.79,SE,125,5.0,-999.0,86,-99.99,,,0.02,weatherlink.com 1.10,2013-06-09 14:39:00,
2013-06-09 09:52:00,68.1,63.0,29.79,SE,144,6.0,-999.0,84,-99.99,,,0.02,weatherlink.com 1.10,2013-06-09 14:52:00,
2013-06-09 10:07:00,68.6,63.0,29.79,SSE,155,9.0,-999.0,82,-99.99,,,0.02,weatherlink.com 1.10,2013-06-09 15:07:00,
2013-06-09 10:22:00,69.2,63.0,29.78,SSE,157,0.0,-999.0,81,-99.99,,,0.02,weatherlink.com 1.10,2013-06-09 15:22:00,
2013-06-09 10:39:00,70.4,63.0,29.78,South,173,11.0,-999.0,77,-99.99,,,0.02,weatherlink.com 1.10,2013-06-09 15:39:00,
2013-06-09 10:52:00,70.5,63.0,29.78,South,180,9.0,-999.0,76,-99.99,,,0.02,weatherlink.com 1.10,2013-06-09 15:52:00,
2013-06-09 11:08:00,69.7,63.0,29.78,SSE,158,6.0,-999.0,78,-99.99,,,0.02,weatherlink.com 1.10,2013-06-09 16:08:00,
2013-06-09 11:23:00,70.5,64.0,29.78,SE,128,7.0,-999.0,79,-99.99,,,0.02,weatherlink.com 1.10,2013-06-09 16:23:00,
2013-06-09 11:39:00,69.5,63.0,29.78,South,173,2.0,-999.0,80,-99.99,,,0.02,weatherlink.com 1.10,2013-06-09 16:39:00,
2013-06-09 11:52:00,69.5,63.0,29.78,South,171,6.0,-999.0,81,-99.99,,,0.02,weatherlink.com 1.10,2013-06-09 16:52:00,
2013-06-09 12:08:00,70.3,65.0,29.78,SSE,157,6.0,-999.0,83,-99.99,,,0.02,weatherlink.com 1.10,2013-06-09 17:08:00,
2013-06-09 12:23:00,70.7,64.0,29.78,SSE,161,5.0,-999.0,79,-99.99,,,0.02,weatherlink.com 1.10,2013-06-09 17:23:00,
2013-06-09 12:39:00,71.8,64.0,29.77,South,184,7.0,-999.0,77,-99.99,,,0.02,weatherlink.com 1.10,2013-06-09 17:39:00,
2013-06-09 12:53:00,72.7,65.0,29.77,SSE,150,10.0,-999.0,76,-99.99,,,0.02,weatherlink.com 1.10,2013-06-09 17:53:00,
2013-06-09 13:08:00,73.2,64.0,29.76,SSE,154,9.0,-999.0,73,-99.99,,,0.02,weatherlink.com 1.10,2013-06-09 18:08:00,
2013-06-09 13:23:00,73.3,65.0,29.75,SE,139,6.0,-999.0,74,-99.99,,,0.02,weatherlink.com 1.10,2013-06-09 18:23:00,
2013-06-09 13:39:00,74.4,66.0,29.74,SSE,150,5.0,-999.0,75,-99.99,,,0.02,weatherlink.com 1.10,2013-06-09 18:39:00,
2013-06-09 13:53:00,76.2,65.0,29.74,ESE,122,7.0,-999.0,69,-99.99,,,0.02,weatherlink.com 1.10,2013-06-09 18:53:00,
2013-06-09 14:09:00,75.3,65.0,29.74,ESE,110,4.0,-999.0,71,-99.99,,,0.02,weatherlink.com 1.10,2013-06-09 19:09:00,
2013-06-09 14:24:00,74.3,64.0,29.75,SW,219,6.0,-999.0,71,-99.99,,,0.02,weatherlink.com 1.10,2013-06-09 19:24:00,
2013-06-09 14:39:00,68.7,60.0,29.76,SW,219,15.0,-999.0,74,-99.99,,,0.02,weatherlink.com 1.10,2013-06-09 19:39:00,
2013-06-09 14:53:00,63.9,61.0,29.76,WSW,244,0.0,-999.0,90,-99.99,,,0.05,weatherlink.com 1.10,2013-06-09 19:53:00,
2013-06-09 15:09:00,63.0,61.0,29.75,WSW,249,0.0,-999.0,93,-99.99,,,0.18,weatherlink.com 1.10,2013-06-09 20:09:00,
2013-06-09 15:24:00,63.1,61.0,29.74,WSW,249,0.0,-999.0,94,-99.99,,,0.20,weatherlink.com 1.10,2013-06-09 20:24:00,
2013-06-09 15:39:00,64.1,63.0,29.72,South,186,4.0,-999.0,95,-99.99,,,0.22,weatherlink.com 1.10,2013-06-09 20:39:00,
2013-06-09 15:53:00,65.8,64.0,29.73,ESE,115,0.0,-999.0,94,-99.99,,,0.22,weatherlink.com 1.10,2013-06-09 20:53:00,
2013-06-09 16:09:00,67.5,66.0,29.73,ESE,117,2.0,-999.0,96,-99.99,,,0.22,weatherlink.com 1.10,2013-06-09 21:09:00,
2013-06-09 16:24:00,69.2,67.0,29.73,SSE,152,2.0,-999.0,91,-99.99,,,0.22,weatherlink.com 1.10,2013-06-09 21:24:00,
2013-06-09 16:39:00,69.2,65.0,29.73,South,175,6.0,-999.0,87,-99.99,,,0.22,weatherlink.com 1.10,2013-06-09 21:39:00,
2013-06-09 16:54:00,68.4,64.0,29.73,South,188,6.0,-999.0,85,-99.99,,,0.22,weatherlink.com 1.10,2013-06-09 21:54:00,
2013-06-09 17:09:00,67.6,62.0,29.73,SW,227,5.0,-999.0,83,-99.99,,,0.22,weatherlink.com 1.10,2013-06-09 22:09:00,
2013-06-09 17:25:00,66.8,62.0,29.74,South,190,6.0,-999.0,83,-99.99,,,0.22,weatherlink.com 1.10,2013-06-09 22:25:00,
2013-06-09 17:39:00,66.9,62.0,29.74,SSW,203,6.0,-999.0,84,-99.99,,,0.22,weatherlink.com 1.10,2013-06-09 22:39:00,
2013-06-09 17:54:00,66.7,61.0,29.74,SW,233,6.0,-999.0,83,-99.99,,,0.22,weatherlink.com 1.10,2013-06-09 22:54:00,
2013-06-09 18:10:00,65.9,61.0,29.75,SSW,198,7.0,-999.0,85,-99.99,,,0.22,weatherlink.com 1.10,2013-06-09 23:10:00,
2013-06-09 18:25:00,65.2,61.0,29.74,SSW,194,0.0,-999.0,87,-99.99,,,0.22,weatherlink.com 1.10,2013-06-09 23:25:00,
2013-06-09 18:39:00,64.6,61.0,29.74,South,182,3.0,-999.0,88,-99.99,,,0.22,weatherlink.com 1.10,2013-06-09 23:39:00,
2013-06-09 18:54:00,64.8,61.0,29.75,South,172,0.0,-999.0,88,-99.99,,,0.22,weatherlink.com 1.10,2013-06-09 23:54:00,
2013-06-09 19:10:00,64.8,62.0,29.75,South,172,0.0,-999.0,89,-99.99,,,0.22,weatherlink.com 1.10,2013-06-10 00:10:00,
2013-06-09 19:25:00,64.9,62.0,29.75,South,172,0.0,-999.0,89,-99.99,,,0.22,weatherlink.com 1.10,2013-06-10 00:25:00,
2013-06-09 19:39:00,65.0,62.0,29.75,South,172,0.0,-999.0,89,-99.99,,,0.22,weatherlink.com 1.10,2013-06-10 00:39:00,
2013-06-09 19:54:00,65.2,62.0,29.74,South,172,0.0,-999.0,89,-99.99,,,0.22,weatherlink.com 1.10,2013-06-10 00:54:00,
2013-06-09 20:10:00,65.0,62.0,29.74,South,172,0.0,-999.0,90,-99.99,,,0.22,weatherlink.com 1.10,2013-06-10 01:10:00,
2013-06-09 20:25:00,64.9,62.0,29.75,South,172,0.0,-999.0,91,-99.99,,,0.22,weatherlink.com 1.10,2013-06-10 01:25:00,
2013-06-09 20:40:00,64.7,62.0,29.75,SSE,153,0.0,-999.0,90,-99.99,,,0.22,weatherlink.com 1.10,2013-06-10 01:40:00,
2013-06-09 20:55:00,64.7,62.0,29.75,SSE,160,0.0,-999.0,90,-99.99,,,0.22,weatherlink.com 1.10,2013-06-10 01:55:00,
2013-06-09 21:10:00,64.5,62.0,29.75,SSE,160,0.0,-999.0,91,-99.99,,,0.22,weatherlink.com 1.10,2013-06-10 02:10:00,
2013-06-09 21:25:00,64.3,61.0,29.75,SSE,160,0.0,-999.0,90,-99.99,,,0.22,weatherlink.com 1.10,2013-06-10 02:25:00,
2013-06-09 21:40:00,63.9,61.0,29.76,South,169,0.0,-999.0,89,-99.99,,,0.22,weatherlink.com 1.10,2013-06-10 02:40:00,
2013-06-09 21:55:00,63.6,61.0,29.76,South,169,0.0,-999.0,91,-99.99,,,0.22,weatherlink.com 1.10,2013-06-10 02:55:00,
2013-06-09 22:11:00,63.3,61.0,29.77,South,169,0.0,-999.0,92,-99.99,,,0.22,weatherlink.com 1.10,2013-06-10 03:11:00,
2013-06-09 22:26:00,63.0,61.0,29.78,South,169,0.0,-999.0,93,-99.99,,,0.22,weatherlink.com 1.10,2013-06-10 03:26:00,
2013-06-09 22:40:00,62.8,61.0,29.77,South,169,0.0,-999.0,94,-99.99,,,0.22,weatherlink.com 1.10,2013-06-10 03:40:00,
2013-06-09 22:55:00,62.7,61.0,29.77,South,169,0.0,-999.0,94,-99.99,,,0.22,weatherlink.com 1.10,2013-06-10 03:55:00,
2013-06-09 23:11:00,62.3,61.0,29.78,South,169,0.0,-999.0,94,-99.99,,,0.22,weatherlink.com 1.10,2013-06-10 04:11:00,
2013-06-09 23:26:00,62.3,61.0,29.78,South,169,0.0,-999.0,94,-99.99,,,0.22,weatherlink.com 1.10,2013-06-10 04:26:00,
2013-06-09 23:40:00,62.0,60.0,29.78,South,169,0.0,-999.0,94,-99.99,,,0.22,weatherlink.com 1.10,2013-06-10 04:40:00,
2013-06-09 23:55:00,61.7,60.0,29.78,South,169,0.0,-999.0,95,-99.99,,,0.22,weatherlink.com 1.10,2013-06-10 04:55:00,